Flag for Estonia Weather past 2 weeks in Tartu, Estonia

Now
34 °F

Overcast.


Feels Like: 29 °F
Forecast: 34 / 40 °F
Wind: 6 mph from East

Location: Tartu/Ulenurme

Current Time: Apr 1, 2015 at 4:54:18 AM

Latest Report: Apr 1, 2015 at 3:50 AM


Visibility: N/A

Pressure: 29.24 "Hg

Humidity: 93%

Dew point: 32 °F

Location of TartuLocation

Historic Weather in Tartu — Graph

°F

Tartu temperature yesterday

Maximum temperature yesterday: 43 °F (at 2:50 AM)
Minimum temperature yesterday: 34 °F (at 10:50 PM)
Average temperature yesterday: 40 °F

Past Weeks' High & Low Weather Summary

 TemperatureHumidityPressure
High57 °F (Mar 17, 2:50 PM)93% (Mar 20, 8:50 PM)31.01 "Hg (Mar 20, 8:50 PM)
Low19 °F (Mar 22, 5:50 AM)20% (Mar 18, 1:50 PM)29.00 "Hg (Mar 31, 3:50 AM)
Average37 °F67%29.97 "Hg
* Reported Mar 17 1:50 AM — Apr 1 2:50 AM, Tartu, Weather by CustomWeather, © 2015

Note: Actual official high and low records may vary slightly from our data, if they occured in-between our weather recording intervals... More about our weather records

Advertising

Tartu weather history for previous 24 hours

 ConditionsComfort  
Time TempWeatherWind HumidityBarometerVisibility
2:50 AM
Wed, Apr 1
34 °FOvercast.6 mph93%29.24 "HgN/A
1:50 AM34 °FOvercast.5 mph93%29.24 "HgN/A
12:50 AM36 °FOvercast.3 mph87%29.24 "HgN/A
11:50 PM
Tue, Mar 31
36 °FMostly cloudy.3 mph87%29.24 "Hg6 mi
10:50 PM34 °FPassing clouds.3 mph93%29.27 "Hg6 mi
9:50 PM36 °FOvercast.3 mph93%29.24 "HgN/A
8:50 PM37 °FCloudy.1 mph87%29.24 "HgN/A
7:50 PM39 °FPartly sunny.2 mph87%29.21 "HgN/A
6:50 PM41 °FBroken clouds.3 mph81%29.21 "HgN/A
5:50 PM39 °FBroken clouds.7 mph87%29.18 "HgN/A
4:50 PM43 °FBroken clouds.9 mph76%29.18 "HgN/A
3:50 PM41 °FBroken clouds.8 mph81%29.18 "HgN/A
2:50 PM41 °FLight rain. Cloudy.8 mph81%29.18 "HgN/A
1:50 PM41 °FLight rain. Mostly cloudy.10 mph81%29.18 "HgN/A
12:50 PM39 °FLight rain. Mostly cloudy.10 mph87%29.15 "HgN/A
11:50 AM39 °FLight rain. Cloudy.13 mph81%29.15 "HgN/A
10:50 AM39 °FMostly cloudy.12 mph81%29.15 "HgN/A
9:50 AM39 °FMostly cloudy.14 mph81%29.12 "HgN/A
8:50 AM39 °FLight rain. More clouds than sun.16 mph87%29.09 "HgN/A
7:50 AM39 °FLight rain. Mostly cloudy.14 mph87%29.06 "Hg4 mi
6:50 AM41 °FLight rain. Mostly cloudy.14 mph81%29.03 "Hg6 mi
5:50 AM41 °FDrizzle. Mostly cloudy.20 mph81%29.00 "Hg4 mi
4:50 AM43 °FLight rain. Mostly cloudy.21 mph71%29.00 "HgN/A
Weather by CustomWeather, © 2015

See weather overviewHow to use our weather pages